sat.trackr.live / text

‹ back to catalog

STARLINK-6266

NORAD 56542 · 2023-065AR

PAYLOAD ACTIVE UNKNOWN

§ Identity

Operator
Country
US
Launch date
2023-05-14
Launch site
AFETR
Launch vehicle
Mass (kg)
RCS (m²)

Purposes: comms

External: N2YO · Heavens-Above · Gunter

§ Orbital elements

Epoch: 2026-09-20T13:00:13.894272Z

Period
94.27 min
Inclination
43.0002°
Eccentricity
0.0000731
Mean motion
15.27574319 rev/d
Perigee alt
482.6 km
Apogee alt
483.6 km
Semi-major
6,861.2 km
B*
1.1516e-5
RAAN
206.4508°
Arg perigee
259.3951°
Mean anomaly
100.6819°
Rev number
18,623

§ Raw data

STARLINK-62661 56542U 23065AR  26263.54182748  .00000055  00000+0  11516-4 0  99932 56542  43.0002 206.4508 0000731 259.3951 100.6819 15.27574319186232

JSON: /api/v1/satellites/56542 · /tle

For live sub-satellite position, see the globe view (requires WebGL).

§ Visibility from observer

Set your observer location to see the next 7 days of passes ≥ 10°. The values pass through the URL so the page stays shareable.

No JS? Fill the form by hand. The geolocation button needs JavaScript.